Location: Sabalos
(43.2860°N, 0.1414°E)
Time: 07:26:02
(UTC+00:00)

Cosmos 1408 - Pass Details

Date: 05 July 2020
Orbit: 471 x 493 km, 82.6° (Epoch: 14 August)

Event Time Altitude Azimuth Distance (km) Brightness Sun altitude
Exits shadow 23:03:22 57° 288° (WNW) 563 2.9 -22.6°
Drops below altitude 10° 23:06:48 10° 0° (N) 1,644 6.3 -22.7°
Sets 23:08:56 0° 5° (N) 2,526 7.4 -22.8°
